Vorticity
5 4 4 5 5 4 4 4 5 5 5 5 5 5 6 6 6 7 4 5 5 6 6 8 8 8 9 7 9 7 7 5 8 14 7 14 7 7 8 4 0 2 -5 5 1
5 5 5 4 5 5 5 5 5 6 6 5 5 6 7 7 5 6 8 7 7 8 10 7 11 10 10 9 6 7 5 13 9 14 11 -2 12 13 10 3 4 2 -0 -1 4
6 6 6 5 6 5 5 6 5 6 6 6 6 6 6 8 8 7 14 12 11 9 8 8 9 10 10 9 6 5 4 7 4 7 12 5 10 8 7 2 -2 1 4 9 6
6 6 7 7 6 6 6 5 6 5 6 6 7 6 6 8 12 0 2 5 0 1 3 4 8 8 11 10 8 9 7 6 12 4 5 6 14 13 10 3 9 9 3 2 6
8 7 7 7 6 6 7 7 6 6 6 6 7 7 7 6 8 5 9 9 9 9 8 8 9 11 3 4 12 10 7 6 7 13 3 5 6 12 10 8 6 7 3 4 3
8 8 7 7 7 8 7 7 7 8 7 7 6 6 6 4 12 15 14 13 11 10 8 6 5 7 10 10 5 5 7 11 9 7 10 -3 2 2 5 2 9 11 6 6 7
8 7 8 7 7 6 7 7 7 8 8 5 6 8 7 13 7 6 8 10 9 9 7 8 5 4 6 13 17 11 9 10 8 14 9 6 1 4 1 2 2 6 7 3 2
7 4 7 6 6 2 0 7 5 2 4 6 8 7 7 1 3 7 4 4 5 8 5 6 8 5 6 8 4 2 1 6 14 16 10 15 7 2 -0 1 -3 4 -2 -3 -1
5 -1 6 -10 50 27 25 18 14 7 8 16 7 13 19 36 28 18 30 27 20 12 19 18 12 6 6 7 8 14 -9 2 -2 5 20 5 5 24 10 3 2 6 8 8 9
23 30 14 -7 -38 7 8 12 15 11 8 -2 2 13 32 24 8 -7 13 -6 15 2 -2 4 16 9 9 7 -11 9 17 18 10 12 13 7 11 9 -2 -1 7 10 10 9 10
24 15 -33 8 6 4 11 5 3 -5 8 17 -12 -8 -5 -17 -1 5 1 25 11 16 11 3 5 -5 8 11 10 5 3 4 4 7 7 7 5 6 6 11 13 8 5 -3 0
-25 17 -4 5 21 -0 8 -1 8 -6 6 9 1 2 8 5 1 3 8 11 6 5 5 -3 -1 5 5 1 2 1 5 2 5 10 10 6 7 6 3 5 7 5 8 12 11
-6 14 16 5 -3 2 5 10 5 0 3 2 11 6 9 8 1 8 5 5 7 2 1 9 -7 -2 12 4 10 9 9 9 9 10 5 9 10 19 19 16 9 6 7 1 -3
-29 8 9 17 4 6 1 2 -6 6 19 17 22 39 34 24 18 23 21 7 6 14 12 34 25 16 5 3 4 5 8 -1 12 17 4 13 1 8 -21 -1 6 19 22 3 9
20 16 13 10 13 11 16 24 24 20 9 22 22 9 2 5 -6 -2 30 35 6 -3 -1 -21 14 13 25 22 26 8 13 15 13 15 12 26 14 -11 6 3 9 16 26 25 22
7 11 10 10 16 18 17 13 17 2 9 12 10 10 15 17 10 6 4 16 24 31 7 0 -11 -6 7 18 18 17 17 15 13 16 29 20 -9 21 26 21 37 40 28 19 18
22 16 9 1 6 14 14 14 -0 -11 9 20 4 9 14 15 24 7 5 20 16 16 35 31 22 17 11 2 -9 5 8 9 14 10 -4 24 20 -52 -40 -25 -20 -10 26 25 38
-1 6 -7 -15 4 7 8 15 -3 27 -25 7 9 6 18 13 17 19 7 13 3 6 -4 10 18 27 46 53 9 31 -4 -31 11 2 0 44 8 -10 -5 -15 17 37 15 4 -1
13 -3 -0 5 23 16 9 -9 11 13 27 -8 -4 2 -1 11 5 -5 6 9 16 23 -0 3 18 23 -14 -4 24 42 10 27 -16 10 7 -4 19 2 16 -1 -14 10 20 -13 -32
8 21 19 10 6 -6 12 -12 -7 6 16 3 9 9 5 5 8 14 15 10 10 20 15 5 16 31 17 1 4 24 -3 2 8 12 8 19 17 -36 -30 -11 -9 4 -10 3 21
21 10 19 23 8 30 -0 -9 -3 10 -3 -7 0 -5 1 2 -1 -6 10 3 15 3 -1 13 10 1 -2 20 1 21 25 15 14 -3 3 8 6 -6 14 26 20 28 44 45 18
14 20 22 1 -23 18 -3 11 -2 4 -14 -7 -1 -1 -1 -3 18 13 9 2 -16 -12 4 22 3 9 -17 4 10 21 11 14 30 20 1 2 18 8 18 18 39 5 -42 -22 -8
21 -16 16 19 25 25 14 16 -11 2 12 4 1 22 15 8 7 6 6 7 7 6 -7 -20 4 12 18 33 4 -24 -26 9 12 18 13 8 2 5 -36 -31 -38 -28 -17 14 36
16 12 2 -5 3 -4 -6 -2 2 0 1 6 3 2 -6 2 0 -5 8 7 5 8 7 7 10 -6 -26 -39 -5 9 9 6 -18 7 -3 -22 -17 13 13 19 23 42 45 6 11
5 11 27 49 28 19 18 8 27 24 28 27 24 22 27 26 32 16 5 17 14 16 17 23 15 24 14 9 15 5 4 10 7 -6 7 -21 -3 10 16 14 20 43 29 24 20
6 -5 6 -3 24 17 6 9 4 2 6 9 8 11 10 15 8 -13 -8 -16 -4 -13 2 -18 11 4 4 7 19 7 11 11 13 10 10 31 -10 29 3 15 -3 21 35 12 17
6 6 -0 11 4 3 3 5 5 6 11 8 9 10 10 11 9 7 7 10 6 4 -3 -9 -8 11 6 15 21 40 9 21 26 14 25 -6 0 22 -4 20 7 30 29 18 29
Height
3132 3135 3137 3138 3140 3141 3142 3143 3144 3145 3146 3146 3147 3148 3149 3150 3150 3149 3149 3149 3148 3147 3146 3146 3146 3146 3146 3146 3147 3146 3149 3147 3149 3152 3153 3152 3152 3153 3155 3157 3159 3162 3165 3167 3167
3127 3129 3131 3133 3134 3136 3137 3137 3139 3140 3142 3141 3142 3142 3144 3145 3145 3144 3145 3144 3144 3143 3143 3142 3143 3142 3143 3142 3143 3143 3142 3143 3146 3148 3150 3150 3150 3151 3152 3153 3155 3158 3161 3163 3164
3121 3124 3125 3127 3129 3130 3132 3133 3134 3135 3136 3136 3136 3137 3138 3140 3141 3140 3141 3140 3140 3139 3139 3139 3140 3139 3140 3140 3139 3138 3139 3140 3143 3144 3146 3146 3147 3147 3149 3149 3152 3156 3158 3160 3161
3114 3117 3119 3121 3122 3124 3126 3127 3129 3129 3129 3130 3131 3132 3133 3134 3139 3135 3136 3136 3136 3136 3136 3135 3136 3137 3136 3138 3136 3136 3137 3137 3139 3140 3140 3142 3143 3143 3143 3147 3150 3153 3155 3155 3156
3107 3109 3112 3114 3116 3119 3120 3121 3122 3123 3123 3125 3125 3126 3127 3128 3133 3129 3131 3132 3131 3132 3131 3131 3132 3133 3133 3132 3132 3131 3135 3135 3135 3136 3137 3137 3138 3139 3141 3143 3145 3148 3149 3151 3152
3099 3102 3105 3107 3110 3112 3113 3114 3116 3117 3118 3119 3120 3119 3119 3120 3124 3124 3125 3127 3127 3128 3128 3127 3127 3128 3129 3128 3127 3127 3129 3130 3131 3133 3133 3134 3134 3132 3135 3138 3140 3143 3145 3147 3149
3092 3095 3098 3101 3103 3104 3106 3107 3110 3111 3112 3112 3113 3113 3110 3119 3117 3119 3120 3122 3122 3123 3124 3122 3124 3124 3124 3126 3123 3123 3123 3125 3126 3128 3128 3130 3127 3127 3131 3131 3134 3136 3139 3141 3144
3085 3089 3092 3095 3097 3097 3100 3102 3103 3105 3105 3106 3106 3105 3100 3113 3113 3115 3114 3116 3116 3117 3119 3117 3118 3118 3120 3122 3121 3119 3118 3119 3121 3123 3124 3126 3117 3125 3126 3126 3128 3131 3133 3135 3137
3078 3081 3085 3088 3090 3093 3093 3095 3097 3100 3099 3100 3099 3099 3099 3104 3107 3108 3108 3109 3110 3111 3111 3111 3112 3112 3114 3117 3117 3115 3113 3115 3118 3119 3119 3118 3111 3119 3120 3121 3122 3123 3126 3128 3130
3068 3072 3078 3078 3081 3085 3088 3089 3091 3093 3094 3094 3093 3096 3097 3099 3102 3102 3103 3104 3106 3106 3107 3107 3106 3107 3110 3111 3109 3111 3111 3111 3113 3117 3115 3111 3103 3111 3114 3113 3115 3117 3119 3121 3123
3059 3064 3068 3072 3074 3079 3082 3085 3088 3089 3087 3088 3089 3088 3088 3091 3095 3097 3097 3099 3100 3101 3101 3101 3100 3102 3105 3105 3104 3106 3107 3107 3108 3111 3108 3103 3097 3101 3104 3102 3105 3108 3111 3113 3116
3051 3057 3060 3064 3068 3073 3075 3078 3080 3082 3080 3081 3081 3080 3084 3085 3086 3091 3093 3095 3094 3098 3096 3096 3090 3098 3099 3099 3099 3099 3100 3101 3102 3105 3102 3098 3084 3090 3093 3092 3095 3099 3101 3105 3107
3047 3050 3053 3057 3060 3063 3067 3071 3072 3073 3074 3072 3075 3074 3077 3078 3077 3084 3086 3086 3087 3089 3090 3089 3088 3091 3091 3091 3092 3091 3091 3095 3098 3099 3097 3094 3067 3078 3079 3083 3086 3089 3092 3096 3097
3042 3046 3049 3052 3058 3058 3060 3063 3066 3069 3069 3063 3068 3064 3068 3068 3066 3071 3074 3079 3078 3080 3084 3081 3080 3082 3084 3084 3089 3084 3086 3090 3092 3094 3092 3093 3063 3067 3069 3071 3073 3079 3083 3086 3087
3033 3038 3040 3043 3049 3052 3056 3059 3058 3064 3071 3061 3059 3061 3063 3064 3063 3063 3064 3065 3067 3072 3079 3075 3073 3076 3077 3081 3083 3080 3081 3086 3087 3088 3087 3085 3088 3035 3063 3061 3064 3068 3070 3074 3076
3027 3032 3034 3039 3043 3049 3050 3053 3057 3067 3060 3057 3054 3057 3060 3058 3059 3059 3060 3062 3063 3067 3068 3068 3072 3073 3074 3075 3079 3081 3080 3081 3081 3085 3079 3074 3083 3040 3060 3057 3058 3061 3061 3064 3066
3023 3027 3029 3034 3040 3043 3045 3049 3057 3056 3052 3052 3052 3057 3057 3054 3057 3057 3059 3060 3063 3063 3061 3065 3065 3067 3071 3073 3075 3077 3078 3078 3078 3079 3068 3070 3072 3041 3049 3055 3054 3058 3057 3058 3059
3018 3023 3024 3029 3034 3037 3040 3046 3049 3044 3045 3046 3050 3056 3058 3051 3054 3056 3057 3057 3058 3060 3061 3060 3063 3064 3066 3068 3069 3071 3074 3074 3070 3069 3064 3068 3058 3045 3046 3047 3050 3054 3055 3054 3054
3010 3014 3019 3024 3029 3032 3037 3040 3039 3041 3042 3046 3050 3053 3053 3050 3051 3054 3056 3055 3054 3059 3061 3058 3059 3060 3062 3064 3067 3065 3069 3067 3067 3068 3067 3062 3052 3042 3042 3045 3047 3047 3049 3051 3051
3003 3009 3014 3020 3023 3026 3031 3032 3035 3037 3038 3042 3045 3049 3047 3049 3052 3055 3053 3054 3054 3056 3056 3057 3057 3058 3061 3060 3063 3063 3066 3065 3066 3063 3056 3051 3048 3039 3041 3045 3045 3043 3044 3047 3046
2998 3005 3009 3014 3017 3019 3021 3026 3030 3033 3036 3040 3040 3044 3045 3048 3051 3053 3053 3054 3055 3055 3056 3055 3056 3054 3056 3057 3058 3060 3059 3060 3061 3060 3051 3045 3041 3040 3040 3039 3038 3037 3037 3037 3037
2992 2998 3004 3007 3013 3014 3017 3020 3024 3027 3032 3035 3037 3040 3043 3044 3046 3049 3050 3053 3054 3053 3054 3053 3053 3051 3052 3053 3054 3055 3054 3055 3056 3054 3050 3045 3038 3037 3037 3037 3035 3035 3032 3032 3030
2988 2993 3000 3005 3007 3009 3012 3015 3020 3023 3028 3030 3033 3036 3039 3042 3045 3043 3045 3049 3048 3050 3051 3052 3053 3050 3044 3048 3048 3049 3050 3052 3051 3049 3044 3041 3035 3033 3029 3025 3026 3023 3024 3024 3022
2987 2992 2995 2998 3001 3005 3009 3012 3016 3019 3022 3026 3029 3032 3034 3036 3039 3039 3039 3043 3043 3045 3047 3049 3048 3048 3046 3042 3044 3043 3045 3047 3046 3045 3039 3034 3030 3025 3019 3012 3012 3009 3009 3012 3014
2984 2987 2991 2994 2998 3003 3006 3008 3011 3015 3019 3021 3022 3024 3029 3031 3033 3035 3036 3037 3038 3038 3040 3041 3038 3040 3039 3036 3036 3035 3036 3037 3035 3033 3034 3025 3022 3019 3011 3005 3002 2997 2996 2998 3000
2982 2986 2990 2993 2996 2999 3001 3004 3009 3012 3015 3017 3019 3022 3024 3026 3027 3028 3029 3030 3030 3033 3035 3035 3033 3032 3030 3030 3029 3028 3027 3024 3025 3022 3019 3015 3011 3009 3005 3001 2995 2989 2988 2989 2990
2980 2984 2987 2990 2994 2997 3000 3003 3005 3009 3012 3013 3016 3018 3019 3021 3021 3022 3023 3024 3025 3027 3029 3030 3028 3028 3024 3024 3024 3022 3014 3015 3014 3012 3010 3008 3006 3001 2997 2997 2991 2985 2982 2980 2980